FW7308 Weather Reports


Display with metric or nautical units.
time (UTC)temp
F
wind
direction
speed
MPH
gust
MPH
rain 1hr
in
rain 24hr
in
rain mn
in
humidity
%
barometer
mb
20260504223124 66 129 4.0 6.0 0.00 0.00 0.00 44 1008.4
20260504222624 67 350 2.0 2.0 0.00 0.00 0.00 43 1008.4
20260504222124 67 342 3.0 6.0 0.00 0.00 0.00 43 1008.4
20260504221623 66 337 1.0 2.0 0.00 0.00 0.00 42 1008.4
20260504221222 67 184 4.0 8.0 0.00 0.00 0.00 42 1008.2
20260504220724 66 314 4.0 6.0 0.00 0.00 0.00 43 1008.4
20260504220222 67 353 3.0 5.0 0.00 0.00 0.00 42 1008.0
20260504215621 68 332 3.0 5.0 0.00 0.00 0.00 41 1008.0
20260504215120 67 316 1.0 2.0 0.00 0.00 0.00 42 1008.2
20260504214622 68 306 5.0 7.0 0.00 0.00 0.00 41 1008.0
20260504214121 69 319 3.0 5.0 0.00 0.00 0.00 40 1008.0
20260504213219 68 342 5.0 7.0 0.00 0.00 0.00 41 1008.0
20260504212121 68 331 4.0 7.0 0.00 0.00 0.00 41 1008.4
20260504211619 68 355 9.0 14.0 0.00 0.00 0.00 41 1008.4
20260504211118 68 306 2.0 3.0 0.00 0.00 0.00 41 1008.4
20260504210619 67 309 5.0 10.0 0.00 0.00 0.00 42 1008.6
20260504210118 68 321 4.0 9.0 0.00 0.00 0.00 42 1008.6
20260504205618 68 12 1.0 1.0 0.00 0.00 0.00 41 1008.4
20260504205117 67 312 8.0 13.0 0.00 0.00 0.00 42 1008.4
20260504204616 66 299 5.0 7.0 0.00 0.00 0.00 43 1008.7
20260504204117 67 323 6.0 10.0 0.00 0.00 0.00 42 1008.4
20260504203616 67 325 4.0 5.0 0.00 0.00 0.00 43 1008.7
20260504203120 67 159 8.0 14.0 0.00 0.00 0.00 42 1008.7
20260504202648 67 8 4.0 8.0 0.00 0.00 0.00 43 1008.4
20260504202149 66 330 5.0 7.0 0.00 0.00 0.00 42 1008.4
20260504201645 67 292 4.0 7.0 0.00 0.00 0.00 42 1008.6
20260504201144 66 303 6.0 7.0 0.00 0.00 0.00 43 1008.7
20260504200643 66 357 2.0 2.0 0.00 0.00 0.00 44 1008.7
20260504200145 67 350 3.0 7.0 0.00 0.00 0.00 42 1008.6
20260504195644 66 319 3.0 5.0 0.00 0.00 0.00 44 1008.7
20260504195143 68 2 5.0 6.0 0.00 0.00 0.00 42 1008.7
20260504194144 68 355 6.0 8.0 0.00 0.00 0.00 42 1008.6
20260504193142 66 292 5.0 10.0 0.00 0.00 0.00 42 1008.7
20260504192641 65 339 4.0 8.0 0.00 0.00 0.00 44 1008.7
20260504192142 66 335 4.0 9.0 0.00 0.00 0.00 43 1009.1
20260504191642 65 3 2.0 3.0 0.00 0.00 0.00 44 1008.7
20260504191141 65 302 5.0 10.0 0.00 0.00 0.00 43 1009.1
20260504190640 65 301 3.0 6.0 0.00 0.00 0.00 43 1008.7
20260504185640 65 304 8.0 14.0 0.00 0.00 0.00 43 1008.7
20260504185140 66 238 4.0 6.0 0.00 0.00 0.00 44 1008.7
20260504184639 64 298 4.0 7.0 0.00 0.00 0.00 44 1008.7
20260504184238 64 301 4.0 6.0 0.00 0.00 0.00 44 1008.7
20260504183639 66 331 7.0 13.0 0.00 0.00 0.00 43 1008.9
20260504183138 65 248 5.0 7.0 0.00 0.00 0.00 44 1008.7
20260504182637 65 308 3.0 5.0 0.00 0.00 0.00 44 1008.7
20260504182138 65 327 5.0 11.0 0.00 0.00 0.00 43 1009.1
20260504181638 65 355 4.0 7.0 0.00 0.00 0.00 44 1009.1
20260504181137 64 42 3.0 5.0 0.00 0.00 0.00 45 1008.7
20260504180701 64 338 4.0 6.0 0.00 0.00 0.00 44 1008.9
20260504180135 64 310 7.0 14.0 0.00 0.00 0.00 45 1009.1
20260504175638 64 336 9.0 13.0 0.00 0.00 0.00 45 1009.1
20260504175136 63 357 4.0 7.0 0.00 0.00 0.00 45 1009.1
20260504174635 63 337 2.0 3.0 0.00 0.00 0.00 45 1009.1
20260504173637 65 326 5.0 8.0 0.00 0.00 0.00 44 1009.1
20260504173134 66 335 5.0 8.0 0.00 0.00 0.00 42 1008.9
20260504172634 66 307 6.0 11.0 0.00 0.00 0.00 44 1009.1
20260504172135 65 339 5.0 10.0 0.00 0.00 0.00 43 1009.1
20260504171634 66 161 6.0 10.0 0.00 0.00 0.00 43 1009.3
20260504171133 66 210 7.0 11.0 0.00 0.00 0.00 43 1008.7
20260504170632 64 310 3.0 8.0 0.00 0.00 0.00 44 1009.1
20260504170131 65 335 11.0 16.0 0.00 0.00 0.00 43 1009.4
20260504160128 61 121 6.0 8.0 0.00 0.00 0.00 47 1009.8
20260504151126 63 290 3.0 6.0 0.00 0.00 0.00 45 1009.8
20260504150625 61 230 5.0 8.0 0.00 0.00 0.00 46 1009.8
20260504150224 61 326 3.0 3.0 0.00 0.00 0.00 45 1009.8
20260504141119 59 273 7.0 16.0 0.00 0.00 0.00 48 1010.3
20260504140619 61 257 5.0 9.0 0.00 0.00 0.00 45 1009.8
20260504140120 61 224 5.0 7.0 0.00 0.00 0.00 45 1009.8
20260504130745 53 301 2.0 3.0 0.00 0.00 0.00 61 1010.3
20260504130144 52 166 7.0 11.0 0.00 0.00 0.00 61 1010.5
20260504120140 47 171 3.0 5.0 0.00 0.00 0.00 71 1010.9
20260504110637 44 344 1.0 1.0 0.00 0.00 0.00 74 1010.5
20260504110136 44 330 1.0 2.0 0.00 0.00 0.00 74 1010.9
20260504100134 41 332 0.0 1.0 0.00 0.00 0.00 81 1010.5
20260504081625 45 324 1.0 2.0 0.00 0.00 0.00 82 1010.7
20260504081127 45 332 1.0 2.0 0.00 0.00 0.00 80 1010.9
20260504080626 46 312 1.0 2.0 0.00 0.00 0.00 80 1010.9
20260504080125 46 306 3.0 6.0 0.00 0.00 0.00 78 1010.9
20260504070121 44 0.0 0.0 0.00 0.00 0.00 79 1010.5
20260504045744 41 0.0 0.0 0.00 0.00 0.00 67 1010.9
20260504045142 41 317 1.0 2.0 0.00 0.00 0.00 65 1010.9
20260504044641 42 343 0.0 1.0 0.00 0.00 0.00 67 1011.2
20260504034138 39 332 1.0 2.0 0.00 0.00 0.00 68 1010.9
20260504033638 39 329 2.0 2.0 0.00 0.00 0.00 70 1010.9
20260504033238 39 324 2.0 2.0 0.00 0.00 0.00 70 1010.9
20260504032736 38 328 2.0 2.0 0.00 0.00 0.00 71 1010.9
20260504032137 37 332 1.0 1.0 0.00 0.00 0.00 71 1010.9
20260504031636 37 329 1.0 1.0 0.00 0.00 0.00 74 1010.9
20260504031135 37 325 1.0 1.0 0.00 0.00 0.00 72 1011.0
20260504030635 37 328 1.0 1.0 0.00 0.00 0.00 73 1010.9
20260504030141 36 332 1.0 1.0 0.00 0.00 0.00 75 1010.9
20260504025635 36 323 1.0 2.0 0.00 0.00 0.00 74 1011.0
20260504025234 36 332 1.0 2.0 0.00 0.00 0.00 75 1010.9
20260504024734 35 324 2.0 2.0 0.00 0.00 0.00 78 1011.2
20260504024134 35 321 2.0 2.0 0.00 0.00 0.00 77 1010.9
20260504023634 36 324 2.0 2.0 0.00 0.00 0.00 77 1011.2
20260504023133 35 323 2.0 2.0 0.00 0.00 0.00 77 1011.2
20260504022632 36 321 2.0 2.0 0.00 0.00 0.00 77 1011.2
20260504022132 35 319 2.0 2.0 0.00 0.00 0.00 76 1011.2
20260504021734 35 322 2.0 2.0 0.00 0.00 0.00 76 1011.2
20260504021232 35 321 2.0 2.0 0.00 0.00 0.00 77 1011.2
20260504020631 36 324 2.0 2.0 0.00 0.00 0.00 77 1010.9
20260504020131 36 331 2.0 3.0 0.00 0.00 0.00 77 1011.2
20260504015230 36 326 2.0 2.0 0.00 0.00 0.00 77 1011.2
20260504014632 36 318 2.0 2.0 0.00 0.00 0.00 76 1010.9
20260504014129 36 324 2.0 2.0 0.00 0.00 0.00 76 1010.9
20260504013630 36 328 2.0 2.0 0.00 0.00 0.00 76 1011.0
20260504012628 36 321 2.0 2.0 0.00 0.00 0.00 75 1010.9
20260504012129 36 324 2.0 2.0 0.00 0.00 0.00 75 1010.9
20260504011628 37 323 2.0 2.0 0.00 0.00 0.00 75 1010.9
20260504011127 37 326 2.0 2.0 0.00 0.00 0.00 74 1010.5
20260504010627 37 326 2.0 2.0 0.00 0.00 0.00 74 1010.5
20260504010126 37 326 2.0 2.0 0.00 0.00 0.00 74 1010.5
20260504005625 37 324 2.0 2.0 0.00 0.00 0.00 73 1010.5
20260504005126 37 328 2.0 2.0 0.00 0.00 0.00 75 1010.3
20260504004625 38 325 2.0 2.0 0.00 0.00 0.00 74 1010.5
20260504004124 38 324 2.0 2.0 0.00 0.00 0.00 72 1010.1
20260504003624 38 325 2.0 2.0 0.00 0.00 0.00 73 1010.5
20260504003127 38 319 2.0 2.0 0.00 0.00 0.00 72 1010.1
20260504002724 39 324 2.0 2.0 0.00 0.00 0.00 71 1010.1
20260504002124 39 323 2.0 2.0 0.00 0.00 0.00 73 1010.1
20260504001623 40 324 2.0 2.0 0.00 0.00 0.00 70 1010.1
20260504001124 40 326 1.0 2.0 0.00 0.00 0.00 68 1010.1
20260504000623 41 324 1.0 1.0 0.00 0.00 0.00 67 1009.8
20260504000222 41 330 1.0 2.0 0.00 0.00 0.00 65 1009.8
20260503235621 42 325 1.0 2.0 0.00 0.00 0.00 64 1009.8
20260503235123 43 334 1.0 1.0 0.00 0.00 0.00 61 1009.8
20260503234622 43 338 1.0 2.0 0.00 0.00 0.00 61 1009.8
20260503234122 44 335 0.0 1.0 0.00 0.00 0.00 61 1009.8
20260503233620 45 337 0.0 1.0 0.00 0.00 0.00 55 1009.8
20260503233119 46 340 0.0 1.0 0.00 0.00 0.00 55 1009.8
20260503232620 46 338 1.0 2.0 0.00 0.00 0.00 53 1009.8
20260503232120 46 334 1.0 1.0 0.00 0.00 0.00 54 1009.8
20260503231619 47 338 2.0 3.0 0.00 0.00 0.00 50 1009.8
20260503231120 47 325 0.0 1.0 0.00 0.00 0.00 48 1009.4
20260503230619 47 332 1.0 2.0 0.00 0.00 0.00 48 1009.4
20260503230118 48 342 3.0 6.0 0.00 0.00 0.00 48 1009.4
20260503225719 48 342 2.0 3.0 0.00 0.00 0.00 48 1009.6
20260503225119 48 319 2.0 5.0 0.00 0.00 0.00 47 1009.4
20260503224618 47 324 2.0 2.0 0.00 0.00 0.00 48 1009.4
20260503224117 47 297 4.0 6.0 0.00 0.00 0.00 47 1009.6
20260503223618 47 289 4.0 8.0 0.00 0.00 0.00 48 1009.4